[[{"header":{"parameterUnit":"m.s-1","parameterCategory":1,"la1":30.2991,"la2":30.254,"lo1":-89.0895,"lo2":-89.0444,"dy":0.0017,"dx":0.0017,"nx":28,"ny":28,"refTime":"2024-04-11T09:00:00:Z","depth":0,"parameterNumber":2,"parameterNumberName":"U-component_of_WINDS"},"data":[0,0,0,0,0,0,0,0,0,0,0,0,0,0,0,0,0,0,0,0,0,0,0,0,0,0,0,0,0,0,0,0,0,0,0,0,0,0,0,0,0,0,0,0,0,0,0,0,0,0,0,0,0,0,0,0,0,0,0.4183,0.4182,0,0.4048,0.4047,0.4045,0.393,0.3929,0.3928,0.3927,0.3794,0.3792,0.379,0,0,0,0,0,0,0,0,0,0,0,0,0,0.4345,0.4343,0.4183,0.4182,0.418,0.4049,0.4047,0.4045,0.3931,0.3929,0.3928,0.3926,0.3795,0.3792,0.3789,0,0,0,0,0,0,0,0,0,0,0,0,0,0.4249,0.4342,0.4184,0.4107,0.4099,0.4049,0.4047,0.4044,0.3931,0.3929,0.3927,0.3925,0.3796,0.3792,0.3789,0.3806,0,0,0.3778,0.3777,0,0,0,0,0,0,0,0,0.4255,0.4244,0.412,0.4112,0.4103,0.4004,0.4055,0.3965,0.3932,0.3995,0.3927,0.3924,0.3866,0.3857,0.3836,0.38,0.3794,0.3778,0.3776,0.3774,0.3773,0,0,0,0,0,0,0,0.4262,0.4249,0.413,0.4118,0.4108,0.408,0.4065,0.4038,0.3943,0.3989,0.3981,0.3966,0.3861,0.3839,0.3832,0.3792,0.3778,0.3775,0.3773,0.3771,0.3762,0.3764,0,0,0,0,0,0,0.428,0.4255,0.4134,0.4126,0.4176,0.4079,0.4061,0.4038,0.3943,0.3927,0.3968,0.3961,0.3846,0.3836,0.3827,0.3839,0.3774,0.3771,0.3769,0.376,0.3763,0.3765,0,0,0,0,0,0,0.4284,0.427,0.414,0.4188,0.4169,0.4078,0.4053,0.4036,0.4014,0.3927,0.391,0.3963,0.3844,0.3832,0.3811,0.3833,0.3769,0.3766,0.3758,0.3761,0.3764,0.3866,0,0,0,0,0,0,0.4289,0.4272,0.4277,0.4189,0.4167,0.4126,0.4054,0.4035,0.4008,0.3998,0.3917,0.3902,0.3842,0.3817,0.3808,0.3827,0.3764,0.3756,0.376,0.3763,0.3861,0.3872,0.3882,0,0,0,0,0,0.4295,0.4313,0.4278,0.4264,0.4171,0.4127,0.4115,0.4044,0.401,0.4015,0.3958,0.3905,0.3832,0.3816,0.3805,0.3824,0.3754,0.3758,0.3763,0.3856,0.387,0.3882,0,0,0,0,0,0,0.4408,0.43,0.426,0.4249,0.4198,0.4108,0.4112,0.4061,0.402,0.4012,0.3927,0.391,0.3899,0.3859,0.3843,0.3834,0.3786,0.3788,0.3861,0.3874,0.3884,0.3895,0.3761,0,0,0,0,0,0.4431,0.4403,0.4311,0.4311,0.4287,0.4204,0.4182,0.4131,0.4075,0.4054,0.3996,0.3945,0.391,0.389,0.3853,0.3854,0.3835,0.3861,0.3872,0.3881,0.3885,0.3881,0.3892,0.3778,0.3778,0.3778,0,0,0.448,0.4417,0.4405,0.4332,0.4286,0.426,0.4187,0.4163,0.4143,0.4051,0.4027,0.3983,0.3921,0.3911,0.3904,0.3877,0.3911,0.3887,0.3895,0.3893,0.3887,0.3898,0.3907,0.3781,0.3781,0.378,0,0,0.4555,0.4505,0.4498,0.4454,0.4384,0.4329,0.4328,0.4244,0.4211,0.4185,0.4115,0.4091,0.4034,0.3992,0.3963,0.4021,0.397,0.4011,0.4069,0.4066,0.4075,0.4083,0.4103,0.4112,0.4015,0.4015,0.4015,0,0.4625,0.4581,0.4502,0.4481,0.4451,0.4364,0.4357,0.4318,0.4242,0.4224,0.4195,0.4119,0.4072,0.405,0.4064,0.4044,0.404,0.4021,0.408,0.4087,0.4093,0.4111,0.4119,0.402,0.402,0.4019,0.4019,0,0.4671,0.4642,0.4645,0.4571,0.454,0.4528,0.4447,0.4426,0.4378,0.4326,0.4301,0.424,0.4189,0.418,0.4134,0.4152,0.4138,0.4096,0.4046,0.411,0.4126,0.4133,0.4028,0.4026,0.4025,0.4023,0,0,0.4815,0.4695,0.4698,0.4662,0.4579,0.4555,0.4538,0.4486,0.447,0.442,0.4404,0.4357,0.4316,0.4284,0.4232,0.423,0.4279,0.4187,0.4185,0.4207,0.4296,0.4328,0.4338,0.4244,0.4245,0.4246,0.4301,0,0.4877,0.4839,0.4766,0.4752,0.4724,0.464,0.4625,0.4573,0.4524,0.4494,0.444,0.4407,0.4357,0.4336,0.4331,0.4274,0.4296,0.4269,0.423,0.4229,0.4248,0.4346,0.438,0.4435,0.4307,0.4308,0.4308,0,0.4944,0.4896,0.4879,0.4796,0.4781,0.4769,0.4715,0.4687,0.4626,0.459,0.4553,0.4495,0.4473,0.4427,0.4396,0.4379,0.4359,0.4329,0.4329,0.4323,0.4273,0.4343,0.445,0.4459,0.4317,0.4317,0.4316,0,0.5051,0.4983,0.4963,0.4935,0.4838,0.4831,0.479,0.4727,0.47,0.4654,0.4635,0.4588,0.4562,0.4527,0.4458,0.443,0.4435,0.4383,0.4405,0.4407,0.4411,0.4412,0.4517,0.4397,0.4397,0.4397,0.4397,0,0.5128,0.512,0.5009,0.4997,0.4987,0.4903,0.4896,0.4847,0.4792,0.477,0.4695,0.4676,0.4585,0.4557,0.4502,0.4485,0.4474,0.4445,0.4431,0.4452,0.4456,0.4438,0.4433,0.4399,0.4399,0.4398,0.4398,0,0.5246,0.5171,0.5144,0.5053,0.5029,0.5026,0.4948,0.4934,0.4879,0.4853,0.4842,0.4757,0.4718,0.4645,0.4588,0.4551,0.4546,0.4521,0.4566,0.4557,0.4584,0.4583,0.4682,0.4691,0.4566,0.4568,0.4569,0,0.53,0.5292,0.5199,0.5178,0.5139,0.5107,0.5078,0.4996,0.4969,0.4898,0.4893,0.4848,0.4808,0.4752,0.4686,0.4641,0.4615,0.4652,0.4608,0.4629,0.4615,0.4617,0.4616,0.4663,0.4665,0.4666,0.4667,0,0.5404,0.5367,0.5327,0.5275,0.5242,0.5197,0.5149,0.5136,0.5043,0.5017,0.4976,0.4945,0.4884,0.4841,0.4787,0.4746,0.4692,0.4682,0.4684,0.4706,0.4733,0.4719,0.4594,0.468,0.4679,0.4678,0.4677,0.4677,0.5491,0.548,0.5412,0.5371,0.5325,0.5281,0.5262,0.5204,0.5168,0.5111,0.5065,0.5028,0.4966,0.4887,0.485,0.482,0.4794,0.4799,0.48,0.4802,0.4811,0.4737,0.481,0.4809,0.4809,0.4809,0.4808,0,0.5591,0.5543,0.5506,0.5439,0.5406,0.5355,0.5298,0.5275,0.5242,0.5189,0.515,0.5103,0.506,0.499,0.4943,0.4933,0.4906,0.4923,0.4923,0.4915,0.4837,0.4839,0.4945,0.4945,0.4945,0.4945,0.4945,0.4945,0.564,0.5617,0.5572,0.5526,0.5478,0.5439,0.5411,0.5371,0.5327,0.5277,0.524,0.5194,0.5134,0.5081,0.504,0.502,0.5007,0.5031,0.5004,0.4933,0.492,0.4908,0.491,0.5029,0.5029,0.5084,0.5085,0.5085]},{"header":{"parameterUnit":"m.s-1","parameterCategory":1,"la1":30.2991,"la2":30.254,"lo1":-89.0895,"lo2":-89.0444,"dy":0.0017,"dx":0.0017,"nx":28,"ny":28,"refTime":"2024-04-11T09:00:00:Z","depth":0,"parameterNumber":3,"parameterNumberName":"V-component_of_WINDS"},"data":[0,0,0,0,0,0,0,0,0,0,0,0,0,0,0,0,0,0,0,0,0,0,0,0,0,0,0,0,0,0,0,0,0,0,0,0,0,0,0,0,0,0,0,0,0,0,0,0,0,0,0,0,0,0,0,0,0,0,5.1448,5.145,0,5.1613,5.1615,5.1617,5.1645,5.1643,5.1642,5.1641,5.1806,5.1812,5.1818,0,0,0,0,0,0,0,0,0,0,0,0,0,5.1153,5.1158,5.1448,5.145,5.1452,5.1613,5.1615,5.1617,5.1645,5.1643,5.1642,5.164,5.1804,5.1811,5.1818,0,0,0,0,0,0,0,0,0,0,0,0,0,5.1296,5.116,5.1447,5.1485,5.149,5.1612,5.1615,5.1618,5.1645,5.1643,5.1641,5.1639,5.1802,5.1811,5.1819,5.1914,0,0,5.1845,5.1849,0,0,0,0,0,0,0,0,5.1287,5.1306,5.1478,5.1483,5.1489,5.1606,5.1572,5.1717,5.1646,5.1586,5.1641,5.1638,5.1741,5.1755,5.179,5.1921,5.1928,5.1846,5.1851,5.1855,5.1857,0,0,0,0,0,0,0,5.1278,5.1299,5.1513,5.148,5.1487,5.1493,5.1511,5.1599,5.1673,5.1591,5.1594,5.1613,5.1744,5.1782,5.1794,5.1931,5.1846,5.1853,5.1859,5.1862,5.2147,5.215,0,0,0,0,0,0,5.1261,5.1291,5.1508,5.1518,5.1381,5.15,5.152,5.157,5.1672,5.1686,5.1615,5.1614,5.1768,5.1784,5.18,5.1917,5.1855,5.1863,5.1868,5.2145,5.2148,5.215,0,0,0,0,0,0,5.1255,5.128,5.1501,5.1405,5.1434,5.1507,5.1564,5.1575,5.1613,5.169,5.1703,5.164,5.1767,5.1788,5.1885,5.1923,5.1867,5.1874,5.2142,5.2146,5.2149,5.2151,0,0,0,0,0,0,5.1246,5.1278,5.1315,5.1406,5.1439,5.1584,5.1566,5.158,5.1628,5.1628,5.1718,5.173,5.1767,5.1872,5.1894,5.1934,5.1881,5.2139,5.2144,5.2148,5.2148,5.2155,5.216,0,0,0,0,0,5.1236,5.1309,5.1317,5.1343,5.1487,5.1587,5.1605,5.1647,5.1631,5.1669,5.1718,5.1727,5.1916,5.1882,5.1906,5.195,5.2137,5.2142,5.2148,5.2146,5.2154,5.216,0,0,0,0,0,0,5.122,5.1321,5.1332,5.1437,5.1503,5.1591,5.164,5.1654,5.1725,5.1723,5.1771,5.179,5.1885,5.1927,5.1888,5.2046,5.2025,5.2035,5.2015,5.2023,5.2029,5.2016,5.1888,0,0,0,0,0,5.1229,5.1302,5.1386,5.1471,5.1504,5.1566,5.1611,5.1637,5.1707,5.1735,5.1792,5.1858,5.1933,5.198,5.2053,5.2155,5.2174,5.2197,5.2203,5.2207,5.2215,5.2272,5.2282,5.2169,5.2168,5.2168,0,0,5.1247,5.1312,5.1355,5.1469,5.1524,5.1597,5.1589,5.1667,5.1722,5.1747,5.1842,5.1886,5.1963,5.2063,5.211,5.2101,5.2251,5.2214,5.2217,5.2223,5.2278,5.2289,5.2298,5.2172,5.2172,5.2171,0,0,5.1319,5.1376,5.1452,5.1507,5.159,5.1631,5.1649,5.1736,5.1766,5.1863,5.1883,5.1948,5.2075,5.2129,5.2173,5.2265,5.2276,5.2287,5.2318,5.2372,5.2381,5.2389,5.2421,5.2432,5.2296,5.2296,5.2296,0,5.1331,5.1444,5.1489,5.1566,5.1615,5.1643,5.1719,5.177,5.1872,5.1904,5.1894,5.2054,5.2108,5.222,5.2242,5.2278,5.2299,5.2277,5.2377,5.2385,5.2393,5.2424,5.2436,5.2296,5.2296,5.2296,5.2296,0,5.1454,5.1532,5.1583,5.1682,5.1737,5.1814,5.1869,5.1919,5.1941,5.1983,5.2081,5.2147,5.2233,5.2262,5.2284,5.2377,5.2369,5.2367,5.2346,5.2404,5.2434,5.2446,5.2298,5.2297,5.2297,5.2297,0,0,5.1519,5.1642,5.166,5.1705,5.1799,5.1859,5.1937,5.2022,5.2063,5.2133,5.2198,5.2305,5.2304,5.2354,5.2382,5.243,5.2497,5.2422,5.2425,5.2433,5.2604,5.2604,5.2617,5.2506,5.2508,5.251,5.2597,0,5.1601,5.1741,5.1784,5.1901,5.1972,5.1999,5.2067,5.2131,5.2172,5.2238,5.2283,5.2358,5.2351,5.2381,5.243,5.2479,5.2532,5.2473,5.2565,5.2568,5.2544,5.2632,5.2633,5.2711,5.2609,5.2611,5.2612,0,5.1714,5.1787,5.1911,5.1995,5.2027,5.2087,5.2168,5.2232,5.2304,5.2331,5.2387,5.2411,5.2492,5.2468,5.2579,5.2538,5.2579,5.2608,5.2612,5.2621,5.2593,5.2642,5.2737,5.2748,5.2631,5.263,5.2628,0,5.1748,5.1876,5.1967,5.2005,5.2106,5.2147,5.2191,5.2262,5.231,5.2381,5.2413,5.2492,5.2535,5.2595,5.264,5.2618,5.2747,5.2726,5.277,5.2768,5.2794,5.2792,5.2896,5.2823,5.2822,5.2822,5.2822,0,5.1834,5.1908,5.1984,5.2039,5.2123,5.2172,5.2253,5.2298,5.2361,5.2425,5.2453,5.2512,5.2568,5.2635,5.267,5.2756,5.2776,5.2799,5.2807,5.2796,5.2792,5.2822,5.2817,5.2825,5.2825,5.2824,5.2823,0,5.1885,5.1938,5.2039,5.2127,5.215,5.2208,5.2283,5.2337,5.238,5.246,5.2482,5.2548,5.2628,5.2679,5.278,5.2804,5.2898,5.2905,5.2873,5.2877,5.2917,5.2912,5.3042,5.3061,5.2976,5.2977,5.2978,0,5.1935,5.1993,5.2087,5.2133,5.2177,5.225,5.23,5.2349,5.24,5.2487,5.2531,5.2613,5.2681,5.2806,5.2863,5.294,5.2949,5.2989,5.2961,5.2947,5.2948,5.2943,5.2949,5.2993,5.2994,5.2994,5.2995,0,5.2019,5.2043,5.2114,5.2195,5.2254,5.2319,5.2385,5.242,5.2481,5.2536,5.2618,5.2671,5.2775,5.2855,5.2938,5.2981,5.2998,5.3004,5.3018,5.3006,5.2984,5.2995,5.2885,5.3,5.3,5.2999,5.2999,5.2999,5.2071,5.2123,5.2198,5.2276,5.2331,5.2391,5.2447,5.2497,5.2566,5.2655,5.268,5.2766,5.2837,5.295,5.2995,5.3062,5.3057,5.3077,5.3082,5.3086,5.3086,5.2975,5.3077,5.3077,5.3077,5.3077,5.3077,0,5.2154,5.2204,5.2276,5.2367,5.2428,5.244,5.2513,5.2563,5.2638,5.2704,5.277,5.2864,5.2942,5.3006,5.3086,5.3127,5.3137,5.3146,5.3143,5.3153,5.3087,5.3066,5.3137,5.3137,5.3137,5.3137,5.3137,5.3137,5.2205,5.2295,5.2327,5.2444,5.2493,5.2577,5.2618,5.2673,5.2726,5.283,5.2895,5.2936,5.3001,5.3086,5.3158,5.3174,5.3202,5.321,5.3227,5.3164,5.3157,5.3151,5.3132,5.3216,5.3216,5.3288,5.3288,5.3289]}]]